GW0656 Weather Reports


Display with metric or nautical units.
time (UTC)temp
F
wind
direction
speed
MPH
gust
MPH
rain 1hr
in
rain 24hr
in
rain mn
in
humidity
%
barometer
mb
20260504002522 61 0 0.0 1.0 0.00 0.01 0.01 48 1013.4
20260504002022 61 0 0.0 5.0 0.00 0.01 0.01 48 1013.3
20260504001533 62 0 0.0 5.0 0.00 0.01 0.01 48 1013.3
20260504001025 62 360 1.0 5.0 0.00 0.01 0.01 46 1013.4
20260504000524 62 0 0.0 5.0 0.00 0.01 0.01 46 1013.5
20260504000035 63 360 0.0 7.0 0.00 0.01 0.01 45 1013.4
20260503235522 63 0 1.0 7.0 0.00 0.01 0.01 44 1013.4
20260503235022 63 360 2.0 6.0 0.00 0.01 0.01 43 1013.5
20260503234535 64 236 1.0 6.0 0.00 0.01 0.01 43 1013.4
20260503234024 64 178 1.0 8.0 0.00 0.01 0.01 45 1013.5
20260503233522 64 293 1.0 8.0 0.00 0.01 0.01 43 1013.4
20260503233035 64 228 1.0 10.0 0.00 0.01 0.01 44 1013.4
20260503232523 64 264 2.0 11.0 0.00 0.01 0.01 44 1013.4
20260503232022 64 217 2.0 11.0 0.00 0.01 0.01 41 1013.4
20260503231533 65 121 2.0 9.0 0.00 0.01 0.01 44 1013.5
20260503231022 65 281 3.0 9.0 0.00 0.01 0.01 44 1013.7
20260503230522 65 240 1.0 10.0 0.00 0.01 0.01 43 1013.8
20260503230036 65 304 2.0 10.0 0.00 0.01 0.01 43 1013.9
20260503225521 65 86 1.0 11.0 0.00 0.01 0.01 43 1014.0
20260503225022 65 155 3.0 11.0 0.00 0.01 0.01 41 1014.2
20260503224535 65 127 3.0 10.0 0.00 0.01 0.01 41 1014.2
20260503224023 66 240 3.0 12.0 0.00 0.01 0.01 42 1014.3
20260503223524 66 277 5.0 12.0 0.00 0.01 0.01 41 1014.4
20260503223040 66 221 2.0 10.0 0.00 0.01 0.01 42 1014.5
20260503222522 66 282 2.0 8.0 0.00 0.01 0.01 43 1014.6
20260503222022 66 163 1.0 10.0 0.00 0.01 0.01 40 1014.6
20260503221536 66 160 1.0 10.0 0.00 0.01 0.01 40 1014.5
20260503221024 66 188 2.0 10.0 0.00 0.01 0.01 41 1014.6
20260503220522 66 244 2.0 9.0 0.00 0.01 0.01 41 1014.8
20260503220039 66 0 3.0 11.0 0.00 0.01 0.01 42 1014.8
20260503215521 66 242 2.0 11.0 0.00 0.01 0.01 43 1015.0
20260503215023 66 188 2.0 10.0 0.00 0.01 0.01 43 1015.1
20260503214533 66 218 3.0 9.0 0.00 0.01 0.01 42 1015.3
20260503214022 66 219 2.0 9.0 0.00 0.01 0.01 42 1015.3
20260503213525 66 303 4.0 11.0 0.00 0.01 0.01 41 1015.4
20260503213035 66 255 3.0 12.0 0.00 0.01 0.01 42 1015.2
20260503212522 66 248 4.0 14.0 0.00 0.01 0.01 40 1015.2
20260503212021 66 53 3.0 14.0 0.00 0.01 0.01 43 1015.1
20260503211539 66 159 2.0 9.0 0.00 0.01 0.01 41 1015.3
20260503211022 66 242 3.0 12.0 0.00 0.01 0.01 41 1015.3
20260503210521 67 305 4.0 12.0 0.00 0.01 0.01 40 1015.6
20260503210034 67 300 4.0 11.0 0.00 0.01 0.01 41 1015.6
20260503205529 66 349 3.0 11.0 0.00 0.01 0.01 46 1015.6
20260503205022 66 24 3.0 11.0 0.00 0.01 0.01 39 1015.7
20260503204532 66 200 4.0 11.0 0.00 0.01 0.01 39 1015.8
20260503204022 66 177 3.0 11.0 0.00 0.01 0.01 40 1015.8
20260503203522 66 223 4.0 11.0 0.00 0.01 0.01 37 1015.8
20260503203031 66 221 3.0 14.0 0.00 0.01 0.01 40 1015.9
20260503202522 66 220 4.0 14.0 0.00 0.01 0.01 36 1016.1
20260503202022 66 266 3.0 13.0 0.00 0.01 0.01 35 1016.3
20260503201535 66 178 2.0 8.0 0.00 0.01 0.01 41 1016.3
20260503201022 66 250 3.0 13.0 0.00 0.01 0.01 41 1016.5
20260503200522 66 205 4.0 13.0 0.00 0.01 0.01 40 1016.6
20260503200035 66 126 3.0 7.0 0.00 0.01 0.01 37 1016.7
20260503195521 65 188 2.0 11.0 0.00 0.01 0.01 46 1017.0
20260503195022 65 220 3.0 12.0 0.00 0.01 0.01 41 1017.1
20260503194541 64 229 5.0 12.0 0.00 0.01 0.01 40 1017.2
20260503194023 64 185 3.0 11.0 0.00 0.01 0.01 37 1017.4
20260503193523 64 229 4.0 10.0 0.00 0.01 0.01 35 1017.5
20260503193040 64 279 4.0 11.0 0.00 0.01 0.01 38 1017.5
20260503192522 64 249 5.0 11.0 0.00 0.01 0.01 37 1017.5
20260503192022 64 207 2.0 11.0 0.00 0.01 0.01 41 1017.5
20260503191540 64 360 4.0 11.0 0.00 0.01 0.01 38 1017.5
20260503191025 63 360 3.0 10.0 0.00 0.01 0.01 41 1017.5
20260503190523 63 223 4.0 10.0 0.00 0.01 0.01 40 1017.9
20260503190044 63 255 3.0 15.0 0.00 0.01 0.01 39 1018.0
20260503185522 63 321 6.0 15.0 0.00 0.01 0.01 38 1018.1
20260503185022 62 142 5.0 14.0 0.00 0.01 0.01 38 1018.1
20260503184540 62 149 3.0 12.0 0.00 0.01 0.01 41 1018.2
20260503184022 62 138 2.0 10.0 0.00 0.01 0.01 41 1018.2
20260503183523 62 282 3.0 12.0 0.00 0.01 0.01 37 1018.3
20260503183037 62 234 3.0 12.0 0.00 0.01 0.01 39 1018.4
20260503182527 62 360 4.0 12.0 0.00 0.01 0.01 41 1018.4
20260503182024 62 263 3.0 10.0 0.00 0.01 0.01 36 1018.5
20260503181538 62 360 3.0 10.0 0.00 0.01 0.01 42 1018.6
20260503181022 61 360 2.0 10.0 0.00 0.01 0.01 44 1018.6
20260503180522 61 360 5.0 10.0 0.00 0.01 0.01 40 1018.8
20260503180034 61 360 3.0 10.0 0.00 0.01 0.01 40 1018.8
20260503175522 61 360 4.0 11.0 0.00 0.01 0.01 37 1018.8
20260503175024 61 360 5.0 13.0 0.00 0.01 0.01 41 1019.0
20260503174558 60 360 3.0 13.0 0.00 0.01 0.01 42 1018.9
20260503174022 61 360 4.0 13.0 0.00 0.01 0.01 39 1019.0
20260503173522 60 360 2.0 9.0 0.00 0.01 0.01 42 1019.0
20260503173040 60 360 3.0 13.0 0.00 0.01 0.01 41 1019.1
20260503172523 60 360 6.0 13.0 0.00 0.01 0.01 41 1019.2
20260503172025 60 360 5.0 11.0 0.00 0.01 0.01 37 1019.3
20260503171533 60 360 2.0 12.0 0.00 0.01 0.01 41 1019.3
20260503171023 60 360 7.0 12.0 0.00 0.01 0.01 38 1019.4
20260503170523 60 360 2.0 13.0 0.00 0.01 0.01 39 1019.4
20260503150522 56 183 3.0 9.0 0.00 0.01 0.01 48 1020.7
20260503131025 47 184 4.0 11.0 0.00 0.01 0.01 77 1020.7
20260503130525 46 186 4.0 9.0 0.00 0.01 0.01 82 1020.7
20260503110528 31 0 0.0 0.0 0.01 0.01 0.01 93 1019.8
20260503081545 33 0 0.0 0.0 0.00 0.00 0.00 92 1019.5
20260503081021 33 0 0.0 0.0 0.00 0.00 0.00 91 1019.4
20260503080522 33 0 0.0 0.0 0.00 0.00 0.00 91 1019.6
20260503072523 34 0 0.0 0.0 0.00 0.00 0.00 91 1019.1
20260503072024 34 0 0.0 0.0 0.00 0.00 0.00 91 1019.1
20260503071541 35 0 0.0 0.0 0.00 0.00 0.00 91 1019.1
20260503071022 35 0 0.0 0.0 0.00 0.00 0.00 91 1019.1
20260503070522 35 0 0.0 0.0 0.00 0.00 0.00 90 1019.1
20260503055022 37 0 0.0 0.0 0.00 0.00 0.00 90 1019.2
20260503054536 37 0 0.0 0.0 0.00 0.00 0.00 90 1019.3
20260503054027 37 0 0.0 0.0 0.00 0.00 0.00 90 1019.2
20260503053522 37 0 0.0 0.0 0.00 0.00 0.00 90 1019.3
20260503053033 37 0 0.0 2.0 0.00 0.00 0.00 89 1019.3
20260503052523 37 0 0.0 2.0 0.00 0.00 0.00 89 1019.3
20260503052031 37 321 1.0 2.0 0.00 0.00 0.00 89 1019.3
20260503051537 38 321 0.0 2.0 0.00 0.00 0.00 89 1019.3
20260503051023 38 0 0.0 2.0 0.00 0.00 0.00 89 1019.3
20260503050523 38 321 1.0 2.0 0.00 0.00 0.00 89 1019.3
20260503050034 38 321 1.0 2.0 0.00 0.00 0.00 89 1019.2
20260503045524 39 321 0.0 1.0 0.00 0.00 0.00 88 1019.2
20260503045023 39 0 0.0 0.0 0.00 0.00 0.00 89 1019.3
20260503044545 39 0 0.0 0.0 0.00 0.00 0.00 89 1019.3
20260503044023 39 0 0.0 0.0 0.00 0.00 0.00 89 1019.2
20260503043522 39 0 0.0 0.0 0.00 0.00 0.00 88 1019.2
20260503043035 39 0 0.0 0.0 0.00 0.00 0.00 88 1019.2
20260503042523 39 0 0.0 0.0 0.00 0.00 0.00 88 1019.2
20260503042023 39 0 0.0 0.0 0.00 0.00 0.00 88 1019.1
20260503041532 39 0 0.0 2.0 0.00 0.00 0.00 87 1019.1
20260503041023 40 0 0.0 2.0 0.00 0.00 0.00 87 1019.2
20260503040522 40 321 0.0 1.0 0.00 0.00 0.00 87 1019.1
20260503040035 40 0 0.0 1.0 0.00 0.00 0.00 87 1019.0
20260503035522 40 0 0.0 1.0 0.00 0.00 0.00 87 1019.0
20260503035022 40 0 0.0 0.0 0.00 0.00 0.00 87 1018.9
20260503034550 40 0 0.0 1.0 0.00 0.00 0.00 86 1019.0
20260503034025 40 0 0.0 1.0 0.00 0.00 0.00 85 1019.0
20260503033524 41 0 0.0 0.0 0.00 0.00 0.00 84 1019.0
20260503033035 41 0 0.0 1.0 0.00 0.00 0.00 84 1018.9
20260503032523 41 0 0.0 1.0 0.00 0.00 0.00 83 1018.8
20260503032023 41 0 0.0 0.0 0.00 0.00 0.00 81 1018.8
20260503031537 42 0 0.0 0.0 0.00 0.00 0.00 79 1018.7
20260503031022 42 0 0.0 0.0 0.00 0.00 0.00 79 1018.7
20260503030527 42 0 0.0 0.0 0.00 0.00 0.00 80 1018.6
20260503030041 42 0 0.0 0.0 0.00 0.00 0.00 79 1018.6
20260503025522 43 0 0.0 0.0 0.00 0.00 0.00 79 1018.7
20260503025022 43 0 0.0 0.0 0.00 0.00 0.00 81 1018.6
20260503024535 43 0 0.0 0.0 0.00 0.00 0.00 80 1018.6
20260503024023 43 0 0.0 0.0 0.00 0.00 0.00 80 1018.5
20260503023524 44 0 0.0 0.0 0.00 0.00 0.00 80 1018.4
20260503023038 44 0 0.0 0.0 0.00 0.00 0.00 79 1018.4
20260503022522 44 0 0.0 0.0 0.00 0.00 0.00 78 1018.4
20260503022022 45 0 0.0 0.0 0.00 0.00 0.00 77 1018.3
20260503021530 45 0 0.0 0.0 0.00 0.00 0.00 75 1018.3
20260503021022 45 0 0.0 0.0 0.00 0.00 0.00 75 1018.3
20260503020524 45 0 0.0 0.0 0.00 0.00 0.00 75 1018.2
20260503020035 46 0 0.0 0.0 0.00 0.00 0.00 73 1018.1
20260503015521 46 0 0.0 0.0 0.00 0.00 0.00 72 1018.1
20260503015021 47 0 0.0 0.0 0.00 0.00 0.00 72 1018.1
20260503014540 47 0 0.0 0.0 0.00 0.00 0.00 71 1018.0
20260503014024 47 0 0.0 0.0 0.00 0.00 0.00 72 1018.0
20260503013523 47 0 0.0 0.0 0.00 0.00 0.00 72 1017.9
20260503013035 48 0 0.0 0.0 0.00 0.00 0.00 71 1017.9
20260503012523 48 0 0.0 0.0 0.00 0.00 0.00 70 1017.9
20260503012022 49 0 0.0 0.0 0.00 0.00 0.00 69 1017.9
20260503011532 49 0 0.0 0.0 0.00 0.00 0.00 67 1017.8
20260503011023 50 0 0.0 0.0 0.00 0.00 0.00 66 1017.8
20260503010522 50 0 0.0 0.0 0.00 0.00 0.00 66 1017.7
20260503010037 51 0 0.0 0.0 0.00 0.00 0.00 65 1017.6
20260503005522 51 0 0.0 0.0 0.00 0.00 0.00 63 1017.6
20260503005023 51 0 0.0 1.0 0.00 0.00 0.00 62 1017.5
20260503004538 51 0 0.0 2.0 0.00 0.00 0.00 61 1017.5
20260503004023 52 0 0.0 3.0 0.00 0.00 0.00 61 1017.6
20260503003523 52 320 1.0 4.0 0.00 0.00 0.00 59 1017.4
20260503003048 52 314 1.0 4.0 0.00 0.00 0.00 59 1017.5